[[{"header":{"parameterUnit":"m.s-1","parameterCategory":2,"la1":30.2991,"la2":30.254,"lo1":-89.0895,"lo2":-89.0444,"dy":0.0017,"dx":0.0017,"nx":28,"ny":28,"refTime":"2025-07-31T21:00:00:Z","depth":"0","parameterNumber":2,"parameterNumberName":"U-component_of_CURRENTS"},"data":[0,0,0,0,0,0,0,0,0,0,0,0,0,0,0,0,0,0,0,0,0,0,0,0,0,0,0,0,0,0,0,0,0,0,0,0,0,0,0,0,0,0,0,0,0,0,0,0,0,0,0,0,0,0,0,0,0,0,0.3299,0.3299,0,0.3323,0.3324,0.3325,0.336,0.336,0.3361,0.3361,0.3453,0.3455,0.3457,0,0,0,0,0,0,0,0,0,0,0,0,0,0.335,0.3349,0.3299,0.3299,0.3299,0.3323,0.3324,0.3325,0.336,0.336,0.3361,0.3361,0.3452,0.3455,0.3458,0,0,0,0,0,0,0,0,0,0,0,0,0,0.3349,0.3348,0.3299,0.3317,0.3319,0.3323,0.3324,0.3325,0.336,0.336,0.3361,0.3361,0.3452,0.3455,0.3458,0.3468,0,0,0.3468,0.3469,0,0,0,0,0,0,0,0,0.3349,0.3348,0.3314,0.3316,0.3318,0.3336,0.3376,0.3375,0.336,0.3348,0.3361,0.3362,0.3418,0.3424,0.3431,0.3472,0.3476,0.3468,0.347,0.3471,0.3472,0,0,0,0,0,0,0,0.3349,0.3347,0.3312,0.3314,0.3316,0.3347,0.3347,0.3376,0.3383,0.3349,0.335,0.3348,0.342,0.3428,0.3434,0.3478,0.3468,0.3471,0.3473,0.3474,0.3584,0.3585,0,0,0,0,0,0,0.3335,0.3346,0.3311,0.3312,0.3331,0.3345,0.3346,0.3332,0.3382,0.3388,0.3348,0.335,0.3422,0.343,0.3437,0.3486,0.3471,0.3474,0.3476,0.3583,0.3584,0.3585,0,0,0,0,0,0,0.3336,0.3331,0.331,0.3328,0.3327,0.3343,0.3328,0.3333,0.3338,0.338,0.3388,0.3348,0.3423,0.3432,0.3467,0.3489,0.3476,0.3479,0.3582,0.3583,0.3584,0.3563,0,0,0,0,0,0,0.3337,0.3331,0.3321,0.3327,0.3326,0.3306,0.3328,0.3333,0.3335,0.3338,0.3383,0.3392,0.3424,0.3462,0.347,0.3493,0.3481,0.358,0.3582,0.3584,0.3562,0.3564,0.3565,0,0,0,0,0,0.3339,0.332,0.332,0.3316,0.3309,0.3306,0.3308,0.3324,0.3334,0.3332,0.337,0.3391,0.348,0.3464,0.3474,0.3499,0.3579,0.3582,0.3584,0.3562,0.3563,0.3565,0,0,0,0,0,0,0.334,0.3322,0.3322,0.3299,0.3299,0.331,0.3307,0.3318,0.3344,0.3351,0.3394,0.3406,0.3454,0.3473,0.3455,0.3538,0.3537,0.3541,0.3517,0.3519,0.352,0.3538,0.3484,0,0,0,0,0,0.3332,0.3312,0.3306,0.3289,0.3283,0.3294,0.3295,0.3304,0.3325,0.3336,0.3368,0.3414,0.347,0.3489,0.3534,0.3563,0.3635,0.359,0.3591,0.3591,0.3614,0.3756,0.3773,0.3592,0.3592,0.3592,0,0,0.333,0.3315,0.3305,0.3287,0.3287,0.3288,0.3297,0.3291,0.3309,0.3343,0.3375,0.3418,0.3481,0.3528,0.3551,0.3544,0.3673,0.3594,0.3594,0.3617,0.376,0.3778,0.3794,0.3594,0.3594,0.3593,0,0,0.332,0.3296,0.3282,0.3277,0.3269,0.3277,0.3272,0.3279,0.3296,0.3322,0.3373,0.3428,0.3476,0.3543,0.3582,0.3614,0.3681,0.362,0.3632,0.3769,0.3786,0.3801,0.3885,0.3909,0.3612,0.3612,0.3612,0,0.3327,0.3303,0.328,0.327,0.3276,0.327,0.3276,0.3287,0.331,0.3346,0.3328,0.3465,0.3496,0.3609,0.3612,0.362,0.3692,0.3618,0.3772,0.3789,0.3806,0.3889,0.3915,0.3612,0.3612,0.3612,0.3612,0,0.3313,0.3297,0.3286,0.3275,0.3275,0.3274,0.3283,0.3297,0.3312,0.3344,0.3437,0.3488,0.3582,0.3591,0.3604,0.3738,0.3748,0.3763,0.3769,0.3823,0.3906,0.3934,0.361,0.3611,0.3611,0.3611,0,0,0.3353,0.3291,0.3296,0.329,0.3282,0.3285,0.3309,0.3353,0.3396,0.3424,0.351,0.3587,0.3627,0.3675,0.3714,0.3804,0.3949,0.3819,0.3826,0.3902,0.4229,0.4078,0.4094,0.3999,0.4004,0.4008,0.423,0,0.3368,0.3341,0.3319,0.3322,0.3316,0.3322,0.3351,0.3389,0.3426,0.3498,0.358,0.3668,0.3657,0.3708,0.3802,0.3923,0.4026,0.3886,0.4168,0.4175,0.4036,0.4123,0.3896,0.4061,0.4257,0.4262,0.4265,0,0.3389,0.3368,0.3357,0.335,0.3353,0.3358,0.3422,0.3446,0.3539,0.3576,0.3678,0.3741,0.3882,0.3859,0.4115,0.4028,0.4136,0.4213,0.4225,0.4118,0.4077,0.4047,0.4105,0.3934,0.4308,0.4305,0.4302,0,0.3435,0.341,0.3402,0.3396,0.3382,0.3401,0.3414,0.348,0.3517,0.3641,0.369,0.3864,0.3949,0.413,0.4243,0.4218,0.4506,0.4504,0.4478,0.4467,0.4347,0.4315,0.4275,0.4722,0.4722,0.4721,0.4721,0,0.3466,0.3463,0.3416,0.341,0.3426,0.3422,0.3465,0.3502,0.3579,0.3638,0.3738,0.3825,0.4025,0.418,0.4307,0.4452,0.4576,0.4509,0.4533,0.4323,0.4289,0.4191,0.4128,0.4729,0.4728,0.4726,0.4725,0,0.3493,0.3465,0.3449,0.3433,0.3432,0.3441,0.3453,0.3486,0.356,0.3645,0.3691,0.3843,0.4032,0.4198,0.4476,0.4505,0.4536,0.4704,0.4399,0.438,0.4149,0.4093,0.4058,0.397,0.4735,0.4733,0.4731,0,0.3481,0.3475,0.3451,0.3437,0.3418,0.3425,0.3427,0.3476,0.3506,0.3648,0.3692,0.3878,0.3983,0.4274,0.4389,0.4585,0.4476,0.4454,0.4361,0.4115,0.4077,0.3961,0.3882,0.4202,0.4196,0.4191,0.4187,0,0.3462,0.346,0.3443,0.3416,0.3402,0.3391,0.3398,0.3419,0.349,0.3551,0.3654,0.3752,0.3977,0.4036,0.4218,0.4313,0.4173,0.4355,0.4223,0.375,0.3511,0.344,0.4044,0.4143,0.4147,0.4151,0.4153,0.4155,0.3438,0.3426,0.3404,0.3377,0.3358,0.3337,0.3301,0.3328,0.3355,0.3389,0.3548,0.3582,0.3682,0.3897,0.396,0.3819,0.3925,0.371,0.3699,0.3633,0.3413,0.387,0.3903,0.3905,0.3908,0.391,0.3912,0,0.3388,0.3381,0.3358,0.3308,0.3249,0.3265,0.3254,0.3196,0.3175,0.323,0.3278,0.3247,0.3266,0.3333,0.3281,0.3168,0.3112,0.3071,0.2869,0.2861,0.3379,0.3211,0.2943,0.2943,0.2944,0.2944,0.2944,0.2944,0.3355,0.3318,0.3307,0.3196,0.3152,0.3031,0.2998,0.2942,0.2935,0.2809,0.2719,0.276,0.2805,0.2764,0.2609,0.2579,0.2432,0.2312,0.2395,0.2723,0.2781,0.2837,0.2662,0.2283,0.2283,0.1751,0.1747,0.1743]},{"header":{"parameterUnit":"m.s-1","parameterCategory":2,"la1":30.2991,"la2":30.254,"lo1":-89.0895,"lo2":-89.0444,"dy":0.0017,"dx":0.0017,"nx":28,"ny":28,"refTime":"2025-07-31T21:00:00:Z","depth":"0","parameterNumber":3,"parameterNumberName":"V-component_of_CURRENTS"},"data":[0,0,0,0,0,0,0,0,0,0,0,0,0,0,0,0,0,0,0,0,0,0,0,0,0,0,0,0,0,0,0,0,0,0,0,0,0,0,0,0,0,0,0,0,0,0,0,0,0,0,0,0,0,0,0,0,0,0,0.0579,0.058,0,0.0694,0.0695,0.0697,0.0735,0.0734,0.0734,0.0733,0.0739,0.074,0.074,0,0,0,0,0,0,0,0,0,0,0,0,0,0.0421,0.0424,0.0579,0.058,0.0582,0.0694,0.0695,0.0697,0.0735,0.0734,0.0734,0.0733,0.0739,0.074,0.074,0,0,0,0,0,0,0,0,0,0,0,0,0,0.0508,0.0425,0.0578,0.0614,0.0619,0.0694,0.0695,0.0697,0.0735,0.0734,0.0733,0.0733,0.0739,0.074,0.074,0.076,0,0,0.0743,0.0744,0,0,0,0,0,0,0,0,0.0503,0.0514,0.0607,0.0612,0.0617,0.0699,0.0642,0.0713,0.0735,0.069,0.0733,0.0732,0.0716,0.0719,0.0744,0.0761,0.0761,0.0743,0.0744,0.0744,0.0744,0,0,0,0,0,0,0,0.0497,0.0509,0.0624,0.0609,0.0615,0.0635,0.0646,0.0656,0.0704,0.0694,0.0697,0.0711,0.0718,0.0743,0.0744,0.0761,0.0743,0.0744,0.0745,0.0745,0.0788,0.0788,0,0,0,0,0,0,0.0483,0.0504,0.062,0.0628,0.0557,0.0638,0.0651,0.0673,0.0706,0.0711,0.0711,0.0712,0.0742,0.0743,0.0744,0.0776,0.0744,0.0745,0.0746,0.0787,0.0788,0.0788,0,0,0,0,0,0,0.0479,0.0493,0.0616,0.0568,0.0585,0.0641,0.0667,0.0676,0.0699,0.072,0.0723,0.0724,0.0741,0.0743,0.0766,0.0775,0.0745,0.0746,0.0786,0.0787,0.0788,0.0834,0,0,0,0,0,0,0.0475,0.0491,0.0501,0.0567,0.0587,0.0663,0.0668,0.0679,0.0709,0.0711,0.0732,0.0733,0.0741,0.0765,0.0767,0.0776,0.0747,0.0786,0.0787,0.0788,0.0832,0.0837,0.0841,0,0,0,0,0,0.0469,0.0492,0.0502,0.0516,0.06,0.0664,0.0676,0.0713,0.071,0.0729,0.0747,0.0732,0.0772,0.0767,0.0769,0.0779,0.0785,0.0786,0.0788,0.083,0.0836,0.0841,0,0,0,0,0,0,0.0427,0.05,0.0512,0.0555,0.0603,0.067,0.0692,0.0712,0.0744,0.074,0.075,0.0754,0.0776,0.077,0.0764,0.0792,0.0772,0.0774,0.0803,0.0808,0.0813,0.0822,0.0748,0,0,0,0,0,0.0423,0.0461,0.0525,0.0558,0.058,0.0632,0.066,0.0687,0.0725,0.0739,0.0756,0.0767,0.0785,0.0791,0.0805,0.0825,0.0815,0.0828,0.0832,0.0836,0.0844,0.0848,0.0854,0.0793,0.0793,0.0793,0,0,0.0417,0.046,0.0482,0.0551,0.0589,0.0641,0.0647,0.0693,0.0734,0.0732,0.078,0.0785,0.0794,0.0824,0.0831,0.0819,0.0846,0.0837,0.0841,0.0847,0.085,0.0856,0.0862,0.0794,0.0794,0.0793,0,0,0.0433,0.046,0.0501,0.0544,0.0604,0.0641,0.0651,0.0716,0.0739,0.0787,0.0793,0.081,0.0836,0.0854,0.0863,0.0896,0.087,0.0887,0.0918,0.0922,0.0927,0.0931,0.0919,0.0922,0.0887,0.0887,0.0887,0,0.0418,0.0488,0.052,0.0572,0.0615,0.064,0.0696,0.0727,0.0791,0.0814,0.0802,0.0857,0.0856,0.0901,0.0911,0.0907,0.0897,0.0899,0.0928,0.0932,0.0936,0.0922,0.0925,0.089,0.0889,0.0889,0.0889,0,0.0476,0.0528,0.0554,0.0631,0.0675,0.0726,0.0775,0.0807,0.0826,0.0858,0.0901,0.0911,0.0945,0.0939,0.0936,0.0965,0.0945,0.0935,0.0917,0.0945,0.0928,0.093,0.0893,0.0892,0.0892,0.0891,0,0,0.0461,0.0575,0.0585,0.0636,0.0714,0.0761,0.0814,0.0882,0.0921,0.0948,0.1006,0.1019,0.1015,0.1024,0.1019,0.1015,0.1024,0.0986,0.0985,0.0976,0.1022,0.0965,0.0962,0.1018,0.1019,0.102,0.0996,0,0.05,0.0608,0.0656,0.0753,0.0815,0.0855,0.0909,0.0962,0.0993,0.1047,0.1048,0.1092,0.1051,0.1069,0.1061,0.105,0.1033,0.1031,0.0993,0.0991,0.0941,0.0964,0.0928,0.09,0.0997,0.0998,0.0998,0,0.0555,0.0622,0.0726,0.0835,0.0863,0.0913,0.1003,0.1056,0.1115,0.1138,0.1168,0.1175,0.1197,0.1147,0.1128,0.1129,0.1075,0.1045,0.1043,0.0978,0.094,0.0888,0.09,0.0801,0.1001,0.1001,0.1,0,0.0559,0.0677,0.0762,0.0801,0.0915,0.0957,0.1011,0.1079,0.1131,0.1197,0.1236,0.1257,0.1278,0.1231,0.1172,0.1153,0.1136,0.1103,0.0995,0.099,0.0945,0.0935,0.0861,0.1067,0.1067,0.1067,0.1067,0,0.0607,0.0675,0.0766,0.0817,0.0901,0.0973,0.1056,0.1108,0.1189,0.1257,0.1278,0.1333,0.1297,0.1287,0.121,0.1119,0.1164,0.1006,0.0985,0.0958,0.0949,0.085,0.0798,0.1066,0.1066,0.1066,0.1066,0,0.0619,0.0685,0.0776,0.0879,0.0912,0.0968,0.108,0.1135,0.121,0.1303,0.1331,0.1397,0.139,0.1335,0.1271,0.1167,0.1025,0.1033,0.0995,0.097,0.0755,0.0708,0.0629,0.0612,0.0908,0.0907,0.0906,0,0.0646,0.0694,0.0796,0.0833,0.0881,0.0967,0.1026,0.1129,0.1197,0.1341,0.1389,0.1429,0.1465,0.1361,0.1207,0.1068,0.0985,0.0906,0.0853,0.0742,0.0675,0.0661,0.0653,0.081,0.0808,0.0807,0.0806,0,0.0671,0.0694,0.0753,0.0825,0.0887,0.0976,0.1073,0.1138,0.1268,0.1359,0.1477,0.1527,0.1446,0.1325,0.1134,0.1013,0.0835,0.0865,0.0773,0.0609,0.0569,0.0543,0.0818,0.0792,0.0793,0.0794,0.0795,0.0795,0.0662,0.0687,0.0744,0.0812,0.0885,0.0985,0.1054,0.1165,0.1292,0.1447,0.1507,0.1603,0.1422,0.1173,0.1011,0.0672,0.0719,0.0554,0.0511,0.0512,0.0477,0.0707,0.0642,0.0643,0.0643,0.0644,0.0644,0,0.0647,0.0676,0.0731,0.0821,0.0894,0.095,0.1084,0.1157,0.1295,0.146,0.1563,0.1537,0.1283,0.1034,0.0587,0.0367,0.0328,0.0253,0.023,0.0245,0.0461,0.0437,0.0299,0.0299,0.0299,0.0299,0.0299,0.0299,0.0644,0.067,0.0699,0.0805,0.0876,0.0974,0.1048,0.1161,0.1293,0.146,0.155,0.1616,0.1422,0.0661,0.0178,0.0076,-0.0007,-0.0062,-0.0067,0.006,0.0086,0.011,0.0076,-0.0136,-0.0137,-0.0248,-0.0249,-0.0251]}],[{"header":{"parameterUnit":"m.s-1","parameterCategory":2,"la1":30.2991,"la2":30.254,"lo1":-89.0895,"lo2":-89.0444,"dy":0.0017,"dx":0.0017,"nx":28,"ny":28,"refTime":"2025-07-31T21:00:00:Z","depth":"2","parameterNumber":2,"parameterNumberName":"U-component_of_CURRENTS"},"data":[0,0,0,0,0,0,0,0,0,0,0,0,0,0,0,0,0,0,0,0,0,0,0,0,0,0,0,0,0,0,0,0,0,0,0,0,0,0,0,0,0,0,0,0,0,0,0,0,0,0,0,0,0,0,0,0,0,0,0.1727,0.1728,0,0.1747,0.1745,0.1744,0.177,0.1772,0.1775,0.1777,0.1907,0.1908,0.191,0,0,0,0,0,0,0,0,0,0,0,0,0,0.162,0.162,0.1726,0.1729,0.1731,0.1747,0.1745,0.1743,0.1769,0.1772,0.1775,0.1778,0.1907,0.1908,0.191,0,0,0,0,0,0,0,0,0,0,0,0,0,0.1635,0.162,0.1726,0.1762,0.1767,0.1747,0.1745,0.1743,0.1769,0.1772,0.1776,0.1779,0.1906,0.1908,0.191,0.1849,0,0,0.1916,0.1916,0,0,0,0,0,0,0,0,0.1634,0.1636,0.1754,0.1759,0.1765,0.1778,0.1757,0.1792,0.1768,0.1745,0.1777,0.1781,0.1886,0.1889,0.1853,0.1856,0.1861,0.1916,0.1917,0.1918,0.1918,0,0,0,0,0,0,0,0.1633,0.1635,0.1712,0.1757,0.1764,0.1748,0.1752,0.1761,0.178,0.1747,0.1755,0.179,0.1887,0.1851,0.1857,0.1863,0.1916,0.1917,0.1919,0.1919,0.2093,0.2096,0,0,0,0,0,0,0.1675,0.1635,0.1712,0.1715,0.1732,0.1748,0.1752,0.1753,0.1778,0.1791,0.1787,0.1792,0.1846,0.1855,0.1862,0.2024,0.1918,0.1919,0.1921,0.2089,0.2093,0.2097,0,0,0,0,0,0,0.1672,0.168,0.1712,0.1695,0.1701,0.1749,0.1748,0.1752,0.1794,0.1811,0.1822,0.1838,0.1849,0.186,0.194,0.2022,0.192,0.1922,0.2085,0.209,0.2095,0.2201,0,0,0,0,0,0,0.1667,0.1677,0.17,0.1696,0.1704,0.177,0.1747,0.175,0.1816,0.1824,0.1857,0.1868,0.1853,0.1938,0.1942,0.2022,0.1923,0.2081,0.2087,0.2094,0.2193,0.2209,0.2223,0,0,0,0,0,0.1663,0.1717,0.1699,0.1711,0.1729,0.1775,0.1775,0.1806,0.1817,0.185,0.1873,0.1871,0.1984,0.1941,0.1945,0.2029,0.2077,0.2085,0.2093,0.2186,0.2206,0.2223,0,0,0,0,0,0,0.1718,0.1725,0.1707,0.1767,0.1793,0.179,0.1855,0.1844,0.1874,0.1908,0.1893,0.1906,0.2017,0.2004,0.1957,0.2102,0.2039,0.2048,0.2109,0.2127,0.2142,0.219,0.1925,0,0,0,0,0,0.1728,0.1741,0.1761,0.1807,0.1848,0.1846,0.1875,0.1887,0.1917,0.1935,0.1949,0.1986,0.2032,0.2069,0.2101,0.2159,0.2161,0.2225,0.224,0.2253,0.2299,0.2388,0.2415,0.2123,0.2123,0.2123,0,0,0.1773,0.1771,0.1789,0.1816,0.1846,0.1887,0.1872,0.1956,0.1985,0.1947,0.202,0.2045,0.2064,0.2143,0.2192,0.2153,0.2322,0.2263,0.2273,0.2313,0.2399,0.2428,0.2453,0.2128,0.2127,0.2126,0,0,0.1861,0.187,0.1915,0.1927,0.1987,0.198,0.2024,0.2052,0.2086,0.2144,0.2136,0.2215,0.2262,0.2286,0.2306,0.2424,0.2405,0.2447,0.2555,0.264,0.2665,0.2687,0.2654,0.2673,0.2446,0.2447,0.2447,0,0.1927,0.1948,0.1947,0.1983,0.2011,0.2034,0.209,0.2115,0.2153,0.2197,0.2213,0.2316,0.2337,0.2425,0.2481,0.2462,0.2474,0.2475,0.266,0.2682,0.2703,0.2665,0.2684,0.2453,0.2452,0.2451,0.2451,0,0.2002,0.2044,0.21,0.2112,0.2132,0.2209,0.2233,0.2284,0.2332,0.235,0.2487,0.2508,0.2571,0.2597,0.2585,0.2738,0.268,0.267,0.2609,0.2739,0.2689,0.2707,0.2461,0.2459,0.2457,0.2456,0,0,0.2121,0.2147,0.2174,0.218,0.2208,0.2232,0.2311,0.2386,0.2457,0.2537,0.2628,0.2742,0.2773,0.28,0.2792,0.2882,0.3011,0.2862,0.2864,0.2821,0.3138,0.2812,0.2798,0.3049,0.3055,0.3059,0.3016,0,0.2207,0.2266,0.2253,0.2324,0.2366,0.2373,0.2424,0.2478,0.2553,0.2643,0.2736,0.2826,0.284,0.2882,0.2987,0.3005,0.3079,0.302,0.303,0.3028,0.2718,0.2818,0.2715,0.2647,0.3033,0.3036,0.3038,0,0.2288,0.2304,0.2376,0.2398,0.2429,0.2461,0.2534,0.2584,0.2705,0.2769,0.289,0.294,0.3066,0.307,0.3209,0.3176,0.32,0.3214,0.3212,0.29,0.274,0.2598,0.2665,0.3068,0.3065,0.3063,0.3061,0,0.2314,0.2399,0.2443,0.2446,0.2477,0.2528,0.2564,0.265,0.2686,0.2853,0.2889,0.306,0.3106,0.3233,0.3257,0.3266,0.3377,0.336,0.308,0.3051,0.2961,0.2913,0.3508,0.3508,0.3508,0.3508,0.3509,0,0.2368,0.2425,0.2473,0.2482,0.2547,0.2562,0.264,0.2709,0.2786,0.2818,0.2959,0.299,0.3175,0.3227,0.3289,0.3196,0.3393,0.312,0.305,0.2978,0.2935,0.3315,0.3293,0.3507,0.3507,0.3507,0.3508,0,0.2382,0.2426,0.2467,0.2523,0.2548,0.2589,0.2623,0.2652,0.2756,0.279,0.2834,0.2953,0.303,0.3124,0.3264,0.3143,0.3146,0.3075,0.2899,0.2807,0.275,0.2735,0.2752,0.2741,0.2731,0.2723,0.2717,0,0.2375,0.2397,0.2458,0.2459,0.2496,0.2548,0.2549,0.2635,0.2627,0.273,0.2712,0.2824,0.2847,0.2846,0.2815,0.2793,0.2949,0.2518,0.2512,0.2758,0.2689,0.2689,0.2686,0.2428,0.2419,0.2412,0.2407,0,0.2314,0.2359,0.237,0.2379,0.2393,0.2403,0.2422,0.2399,0.247,0.2505,0.2535,0.2588,0.2603,0.2516,0.2408,0.238,0.2508,0.2354,0.277,0.2571,0.2432,0.2369,0.2384,0.2345,0.2351,0.2356,0.2359,0.2362,0.2245,0.224,0.2238,0.2262,0.2269,0.2244,0.2234,0.2219,0.2209,0.222,0.2293,0.2294,0.2253,0.2049,0.1984,0.1931,0.2067,0.1949,0.1983,0.2022,0.1929,0.1774,0.1542,0.1544,0.1545,0.1546,0.1547,0,0.2088,0.2109,0.2097,0.2101,0.2077,0.2166,0.2116,0.206,0.2026,0.2012,0.2033,0.1765,0.1692,0.1745,0.159,0.1432,0.1579,0.1351,0.1608,0.1665,0.1717,0.1623,0.1149,0.1147,0.1146,0.1145,0,0,0.1992,0.1926,0.1943,0.1895,0.1957,0.1915,0.1912,0.1842,0.1782,0.1632,0.1596,0.1629,0.165,0.1366,0.1296,0.1241,0.1464,0.119,0.1515,0.188,0.1932,0.2055,0.1966,0,0,0,0,0]},{"header":{"parameterUnit":"m.s-1","parameterCategory":2,"la1":30.2991,"la2":30.254,"lo1":-89.0895,"lo2":-89.0444,"dy":0.0017,"dx":0.0017,"nx":28,"ny":28,"refTime":"2025-07-31T21:00:00:Z","depth":"2","parameterNumber":3,"parameterNumberName":"V-component_of_CURRENTS"},"data":[0,0,0,0,0,0,0,0,0,0,0,0,0,0,0,0,0,0,0,0,0,0,0,0,0,0,0,0,0,0,0,0,0,0,0,0,0,0,0,0,0,0,0,0,0,0,0,0,0,0,0,0,0,0,0,0,0,0,0.0273,0.0273,0,0.0346,0.0347,0.0347,0.0329,0.0328,0.0326,0.0325,0.0203,0.0201,0.0199,0,0,0,0,0,0,0,0,0,0,0,0,0,0.0117,0.012,0.0273,0.0274,0.0275,0.0346,0.0347,0.0348,0.0329,0.0328,0.0326,0.0325,0.0204,0.0201,0.0199,0,0,0,0,0,0,0,0,0,0,0,0,0,0.0186,0.0121,0.0272,0.0275,0.0276,0.0346,0.0347,0.0348,0.033,0.0328,0.0326,0.0324,0.0204,0.0202,0.0199,0.0221,0,0,0.019,0.0188,0,0,0,0,0,0,0,0,0.0182,0.0192,0.0273,0.0275,0.0276,0.0327,0.0247,0.0296,0.033,0.0308,0.0325,0.0323,0.0228,0.0223,0.0243,0.0216,0.021,0.0189,0.0188,0.0186,0.0185,0,0,0,0,0,0,0,0.0178,0.0189,0.0301,0.0274,0.0276,0.0272,0.0279,0.0257,0.0275,0.031,0.0309,0.0319,0.0227,0.0247,0.024,0.0209,0.0189,0.0187,0.0185,0.0184,0.0164,0.0165,0,0,0,0,0,0,0.0173,0.0185,0.0298,0.0303,0.0224,0.0276,0.0285,0.0312,0.0279,0.0274,0.0321,0.0318,0.0253,0.0243,0.0235,0.0235,0.0186,0.0184,0.0182,0.0163,0.0164,0.0165,0,0,0,0,0,0,0.017,0.0183,0.0296,0.0244,0.0258,0.0281,0.0312,0.0314,0.0318,0.029,0.028,0.0319,0.0251,0.0239,0.0228,0.023,0.0182,0.0179,0.0161,0.0163,0.0165,0.0249,0,0,0,0,0,0,0.0165,0.0182,0.0185,0.0245,0.0261,0.0329,0.0314,0.0317,0.0329,0.0325,0.0285,0.0274,0.0248,0.0233,0.0225,0.0225,0.0177,0.0159,0.0162,0.0164,0.0245,0.0254,0.0261,0,0,0,0,0,0.016,0.0176,0.0185,0.0198,0.027,0.0329,0.0337,0.0345,0.033,0.0339,0.0326,0.0274,0.0241,0.0233,0.0223,0.0222,0.0158,0.0161,0.0164,0.0241,0.0252,0.0261,0,0,0,0,0,0,0.0088,0.0178,0.0188,0.0224,0.0268,0.0326,0.0331,0.0344,0.0346,0.0328,0.0299,0.0288,0.028,0.0245,0.0236,0.0225,0.0187,0.0188,0.0249,0.0259,0.0267,0.0265,0.0175,0,0,0,0,0,0.0082,0.0126,0.0197,0.0219,0.0245,0.0288,0.0306,0.0318,0.0338,0.0337,0.032,0.0296,0.029,0.0269,0.0256,0.0249,0.0208,0.024,0.0248,0.0255,0.0248,0.0222,0.0226,0.0175,0.0175,0.0175,0,0,0.0054,0.0111,0.0129,0.0208,0.0242,0.0294,0.0293,0.0323,0.0355,0.0319,0.0337,0.0325,0.0299,0.0304,0.0293,0.0267,0.0248,0.0259,0.0265,0.0254,0.0225,0.023,0.0234,0.0177,0.0176,0.0176,0,0,0.004,0.008,0.0118,0.0173,0.0235,0.0274,0.0283,0.0343,0.0351,0.0385,0.0368,0.0363,0.0351,0.0342,0.0333,0.0375,0.0302,0.0361,0.0388,0.0363,0.0367,0.0369,0.0322,0.032,0.0355,0.0355,0.0355,0,-0.0007,0.0074,0.0129,0.019,0.0234,0.0269,0.0317,0.0347,0.0391,0.0398,0.039,0.0399,0.0373,0.0381,0.0403,0.0391,0.0357,0.0354,0.0373,0.0375,0.0376,0.0327,0.0323,0.0359,0.0359,0.0358,0.0358,0,0.0028,0.0091,0.0119,0.0219,0.0263,0.0313,0.0375,0.0397,0.0414,0.0442,0.0457,0.0453,0.045,0.0448,0.0441,0.044,0.0407,0.0396,0.0347,0.0386,0.0332,0.0327,0.0366,0.0364,0.0363,0.0362,0,0,-0.0058,0.011,0.0121,0.0181,0.0291,0.0332,0.0382,0.0443,0.0463,0.0492,0.052,0.0529,0.0518,0.0509,0.0494,0.0474,0.0462,0.0441,0.0438,0.0391,0.0388,0.0399,0.0393,0.0455,0.0455,0.0455,0.0345,0,-0.0047,0.0072,0.0154,0.0251,0.0322,0.0384,0.0432,0.0478,0.051,0.0543,0.0539,0.0562,0.0545,0.0547,0.0529,0.0492,0.0452,0.0491,0.0358,0.0353,0.0357,0.0389,0.0348,0.0251,0.034,0.0339,0.0338,0,-0.0023,0.006,0.0163,0.0298,0.0327,0.0382,0.0457,0.0504,0.0553,0.0574,0.0592,0.0598,0.0597,0.0573,0.0505,0.0532,0.046,0.0417,0.0412,0.0386,0.0355,0.0226,0.0237,0.0328,0.0329,0.033,0.033,0,-0.0077,0.0072,0.0154,0.0207,0.0349,0.0384,0.0441,0.0504,0.0537,0.0593,0.0618,0.062,0.0625,0.0558,0.0509,0.0494,0.0427,0.0387,0.0315,0.0313,0.0232,0.0225,0.0307,0.0307,0.0308,0.0308,0.0308,0,-0.0062,0.001,0.0138,0.019,0.0264,0.0361,0.042,0.0475,0.0539,0.0596,0.0625,0.068,0.0623,0.06,0.0519,0.0428,0.043,0.0319,0.0293,0.0262,0.0259,0.029,0.029,0.0304,0.0305,0.0306,0.0306,0,-0.0089,-0.0003,0.0094,0.0219,0.0256,0.0305,0.0418,0.0456,0.0523,0.0599,0.0623,0.0702,0.0702,0.0632,0.0539,0.0443,0.0353,0.0307,0.0275,0.0248,0.0232,0.0237,0.0177,0.0177,0.0177,0.0176,0.0176,0,-0.0066,-0.0019,0.009,0.0131,0.02,0.0282,0.0337,0.0433,0.0491,0.0639,0.0681,0.0726,0.0809,0.069,0.0527,0.0366,0.0368,0.0199,0.0163,0.0242,0.0222,0.0228,0.0233,0.007,0.0069,0.0068,0.0068,0,-0.0037,-0.002,0.0041,0.0111,0.0177,0.0265,0.0365,0.042,0.0552,0.0667,0.0849,0.0937,0.0832,0.0709,0.0486,0.0372,0.0229,0.0176,0.0264,0.0136,0.014,0.0121,0.013,0.006,0.0061,0.0061,0.0062,0.0062,-0.0033,-0.0011,0.0036,0.0108,0.018,0.0287,0.039,0.0519,0.0683,0.0894,0.0937,0.1062,0.0834,0.0577,0.0392,0.0184,0.0185,0.0066,0.0069,0.0072,0.0106,0.0112,0.003,0.0031,0.0031,0.0032,0.0032,0,-0.0024,-0.0007,0.0044,0.0143,0.0239,0.0283,0.044,0.0582,0.0838,0.0961,0.1123,0.0937,0.077,0.0566,0.0225,0.002,0.0,-0.0023,-0.0036,-0.0028,-0.0022,0.0009,-0.0094,-0.0094,-0.0094,-0.0095,0,0,-0.0012,0.0006,0.0028,0.0185,0.0282,0.0455,0.0578,0.0786,0.0914,0.1121,0.1167,0.1094,0.0815,0.0523,0.0244,0.0089,0.0091,0.0065,0.0174,0.0196,0.0206,0.0023,0.0078,0,0,0,0,0]}],[{"header":{"parameterUnit":"m.s-1","parameterCategory":2,"la1":30.2991,"la2":30.254,"lo1":-89.0895,"lo2":-89.0444,"dy":0.0017,"dx":0.0017,"nx":28,"ny":28,"refTime":"2025-07-31T21:00:00:Z","depth":"4","parameterNumber":2,"parameterNumberName":"U-component_of_CURRENTS"},"data":[0,0,0,0,0,0,0,0,0,0,0,0,0,0,0,0,0,0,0,0,0,0,0,0,0,0,0,0,0,0,0,0,0,0,0,0,0,0,0,0,0,0,0,0,0,0,0,0,0,0,0,0,0,0,0,0,0,0,-0.0251,-0.0251,0,-0.0194,-0.0193,-0.0192,-0.0107,-0.0106,-0.0104,-0.0103,-0.0104,-0.0106,-0.0107,0,0,0,0,0,0,0,0,0,0,0,0,0,-0.0329,-0.0328,-0.0251,-0.0251,-0.025,-0.0194,-0.0193,-0.0192,-0.0108,-0.0106,-0.0104,-0.0102,-0.0104,-0.0106,-0.0107,0,0,0,0,0,0,0,0,0,0,0,0,0,-0.0286,-0.0328,-0.0252,-0.0201,-0.0196,-0.0194,-0.0193,-0.0192,-0.0108,-0.0106,-0.0103,-0.0101,-0.0103,-0.0105,-0.0107,-0.0165,0,0,-0.0114,-0.0115,0,0,0,0,0,0,0,0,-0.0288,-0.0283,-0.0209,-0.0204,-0.0199,-0.0155,-0.0221,-0.0186,-0.0108,-0.0141,-0.0103,-0.01,-0.0129,-0.0129,-0.0122,-0.0165,-0.0165,-0.0114,-0.0116,-0.0116,-0.0117,0,0,0,0,0,0,0,-0.0291,-0.0285,-0.0228,-0.0209,-0.0202,-0.0195,-0.0186,-0.0214,-0.0149,-0.0138,-0.0132,-0.0126,-0.0126,-0.012,-0.0121,-0.0165,-0.0114,-0.0116,-0.0117,-0.0118,-0.021,-0.0211,0,0,0,0,0,0,-0.0299,-0.0288,-0.023,-0.0227,-0.0239,-0.0196,-0.0185,-0.0172,-0.0147,-0.0141,-0.0128,-0.0123,-0.0117,-0.0119,-0.0121,-0.0119,-0.0116,-0.0118,-0.012,-0.0209,-0.021,-0.0212,0,0,0,0,0,0,-0.0301,-0.0294,-0.0233,-0.0257,-0.0248,-0.0196,-0.0182,-0.0172,-0.012,-0.0139,-0.0133,-0.0082,-0.0116,-0.0118,-0.0122,-0.0121,-0.0119,-0.0121,-0.0208,-0.0209,-0.0211,-0.016,0,0,0,0,0,0,-0.0303,-0.0295,-0.0277,-0.0257,-0.0247,-0.0209,-0.0183,-0.0172,-0.0123,-0.0114,-0.0099,-0.0099,-0.0114,-0.0118,-0.0124,-0.0124,-0.0123,-0.0206,-0.0208,-0.021,-0.016,-0.016,-0.0159,0,0,0,0,0,-0.0306,-0.0292,-0.0276,-0.0268,-0.0227,-0.0208,-0.0202,-0.0159,-0.0123,-0.0102,-0.0096,-0.0097,-0.0136,-0.0121,-0.0127,-0.0127,-0.0205,-0.0208,-0.021,-0.016,-0.016,-0.0159,0,0,0,0,0,0,-0.0313,-0.0282,-0.0263,-0.0238,-0.0215,-0.0193,-0.0167,-0.0139,-0.0115,-0.0093,-0.0106,-0.0107,-0.0114,-0.0136,-0.0118,-0.0166,-0.0175,-0.0178,-0.0134,-0.0134,-0.0134,-0.0131,-0.0125,0,0,0,0,0,-0.031,-0.0286,-0.0263,-0.0238,-0.0223,-0.0188,-0.0168,-0.0135,-0.0119,-0.01,-0.009,-0.0102,-0.0141,-0.0143,-0.0171,-0.0191,-0.0231,-0.0202,-0.0201,-0.02,-0.0206,-0.0295,-0.0303,-0.022,-0.022,-0.022,0,0,-0.0306,-0.0285,-0.027,-0.0238,-0.021,-0.0192,-0.0167,-0.0122,-0.0112,-0.0112,-0.0079,-0.0093,-0.0147,-0.0169,-0.0175,-0.0177,-0.0238,-0.0204,-0.0202,-0.0209,-0.0299,-0.0307,-0.0314,-0.0222,-0.0222,-0.0221,0,0,-0.029,-0.0264,-0.0236,-0.0217,-0.0172,-0.0165,-0.0144,-0.0098,-0.0078,-0.0059,-0.0076,-0.0099,-0.0104,-0.0168,-0.0202,-0.0227,-0.0235,-0.0211,-0.02,-0.0286,-0.0293,-0.03,-0.0325,-0.0335,-0.0208,-0.0208,-0.0208,0,-0.0281,-0.0243,-0.0226,-0.0197,-0.0179,-0.015,-0.0121,-0.0119,-0.0078,-0.0087,-0.0037,-0.0099,-0.0125,-0.0222,-0.0208,-0.0228,-0.0238,-0.0189,-0.0283,-0.0292,-0.03,-0.0324,-0.0336,-0.0206,-0.0206,-0.0206,-0.0206,0,-0.0247,-0.0211,-0.0192,-0.0154,-0.0143,-0.0106,-0.0108,-0.0089,-0.0052,-0.0057,-0.0089,-0.0124,-0.0156,-0.0179,-0.0185,-0.0265,-0.0238,-0.0271,-0.0277,-0.0305,-0.0329,-0.0341,-0.0203,-0.0203,-0.0204,-0.0204,0,0,-0.0228,-0.0176,-0.0162,-0.0141,-0.0107,-0.0098,-0.0103,-0.0117,-0.013,-0.0101,-0.0132,-0.0185,-0.0166,-0.0207,-0.0234,-0.0302,-0.0345,-0.0274,-0.0279,-0.0283,-0.0466,-0.0289,-0.0286,-0.0368,-0.0371,-0.0373,-0.0445,0,-0.0193,-0.0136,-0.0126,-0.0087,-0.0062,-0.0063,-0.0083,-0.0101,-0.0108,-0.0136,-0.02,-0.0219,-0.0195,-0.0179,-0.0248,-0.0336,-0.038,-0.0319,-0.0453,-0.0457,-0.0285,-0.0297,-0.0383,-0.0455,-0.0458,-0.046,-0.0462,0,-0.0151,-0.0123,-0.0068,-0.0059,-0.0049,-0.0029,-0.0058,-0.0066,-0.014,-0.014,-0.0175,-0.0201,-0.0283,-0.0251,-0.04,-0.034,-0.0375,-0.0444,-0.045,-0.0315,-0.0304,-0.0436,-0.0485,-0.0484,-0.0482,-0.048,-0.0479,0,-0.0138,-0.0086,-0.0042,-0.0028,-0.0019,-0.0003,0.0005,-0.0049,-0.0089,-0.0119,-0.0149,-0.0229,-0.0268,-0.0347,-0.0418,-0.0393,-0.0591,-0.0598,-0.0486,-0.0473,-0.0635,-0.0627,-0.0705,-0.0705,-0.0705,-0.0705,-0.0705,0,-0.0106,-0.0074,-0.0018,0.0006,0.0021,0.004,0.0029,0.0017,-0.0038,-0.0096,-0.0118,-0.0176,-0.0287,-0.0397,-0.0444,-0.048,-0.0605,-0.0476,-0.0486,-0.0605,-0.0594,-0.0641,-0.0632,-0.0708,-0.0707,-0.0706,-0.0706,0,-0.0097,-0.0052,-0.0021,0.002,0.0035,0.0056,0.005,0.0006,0.0002,-0.0076,-0.0073,-0.017,-0.0218,-0.0342,-0.0493,-0.05,-0.0574,-0.0561,-0.0646,-0.0662,-0.0385,-0.0374,-0.0424,-0.0418,-0.0413,-0.041,-0.0406,0,-0.0088,-0.0053,-0.0013,-0.0015,0.0018,0.0048,0.0028,0.0034,-0.001,-0.0066,-0.0123,-0.0163,-0.0206,-0.0285,-0.039,-0.0451,-0.0451,-0.0496,-0.0447,-0.0354,-0.0361,-0.0357,-0.0352,-0.0399,-0.0398,-0.0396,-0.0395,0,-0.0092,-0.0063,-0.0055,-0.0052,-0.0045,-0.005,-0.0039,-0.0057,-0.006,-0.0107,-0.0082,-0.0075,-0.0134,-0.0176,-0.0219,-0.0284,-0.0474,-0.0447,-0.0457,-0.0411,-0.0325,-0.0335,-0.0336,-0.0379,-0.0381,-0.0383,-0.0384,0,-0.0109,-0.0119,-0.011,-0.0102,-0.0121,-0.0111,-0.0094,-0.0076,-0.0079,-0.0083,-0.0073,-0.0083,-0.0109,-0.009,-0.0157,-0.0157,-0.0135,-0.0158,-0.0183,-0.0202,-0.0094,0.005,0.0108,0,0,0,0,0,-0.0125,-0.0142,-0.0169,-0.0161,-0.0182,-0.0161,-0.0159,-0.0143,-0.0129,-0.0076,-0.0038,-0.0031,0.0009,-0.0021,0.0028,-0.0106,-0.0197,-0.0055,-0.025,-0.0289,-0.0308,-0.02,0,0,0,0,0,0,-0.0151,-0.0174,-0.0185,-0.0204,-0.0197,-0.0207,-0.0179,-0.016,-0.0097,-0.0065,-0.0035,-0.0003,0.0015,0.0007,0.0039,0.0029,-0.0083,-0.005,-0.0048,-0.0278,-0.0295,-0.0311,-0.0206,0,0,0,0,0]},{"header":{"parameterUnit":"m.s-1","parameterCategory":2,"la1":30.2991,"la2":30.254,"lo1":-89.0895,"lo2":-89.0444,"dy":0.0017,"dx":0.0017,"nx":28,"ny":28,"refTime":"2025-07-31T21:00:00:Z","depth":"4","parameterNumber":3,"parameterNumberName":"V-component_of_CURRENTS"},"data":[0,0,0,0,0,0,0,0,0,0,0,0,0,0,0,0,0,0,0,0,0,0,0,0,0,0,0,0,0,0,0,0,0,0,0,0,0,0,0,0,0,0,0,0,0,0,0,0,0,0,0,0,0,0,0,0,0,0,-0.0073,-0.0074,0,-0.0183,-0.0184,-0.0185,-0.0209,-0.0208,-0.0207,-0.0206,-0.0273,-0.0275,-0.0278,0,0,0,0,0,0,0,0,0,0,0,0,0,0.0084,0.0082,-0.0073,-0.0074,-0.0075,-0.0182,-0.0184,-0.0186,-0.0209,-0.0208,-0.0207,-0.0206,-0.0272,-0.0275,-0.0278,0,0,0,0,0,0,0,0,0,0,0,0,0,-0.0002,0.0081,-0.0073,-0.0099,-0.0102,-0.0182,-0.0184,-0.0186,-0.0209,-0.0208,-0.0207,-0.0205,-0.0271,-0.0275,-0.0279,-0.0332,0,0,-0.0291,-0.0293,0,0,0,0,0,0,0,0,0.0003,-0.0008,-0.0094,-0.0097,-0.0101,-0.0179,-0.0153,-0.0232,-0.021,-0.017,-0.0206,-0.0204,-0.0237,-0.0244,-0.0271,-0.0335,-0.0338,-0.0291,-0.0294,-0.0295,-0.0296,0,0,0,0,0,0,0,0.0009,-0.0004,-0.0118,-0.0095,-0.0099,-0.0116,-0.0126,-0.0169,-0.0211,-0.0174,-0.0175,-0.0185,-0.0239,-0.0267,-0.0273,-0.0339,-0.0291,-0.0295,-0.0297,-0.0299,-0.0433,-0.0434,0,0,0,0,0,0,0.0025,0.0002,-0.0115,-0.0121,-0.0042,-0.0119,-0.0131,-0.0157,-0.0212,-0.0219,-0.0186,-0.0186,-0.0261,-0.0268,-0.0275,-0.0328,-0.0295,-0.0299,-0.0301,-0.0432,-0.0433,-0.0434,0,0,0,0,0,0,0.0029,0.0015,-0.011,-0.0059,-0.0076,-0.0123,-0.0152,-0.016,-0.0181,-0.0221,-0.0227,-0.0198,-0.026,-0.0269,-0.0319,-0.0331,-0.0301,-0.0305,-0.043,-0.0432,-0.0434,-0.0442,0,0,0,0,0,0,0.0033,0.0017,0.0005,-0.0059,-0.0078,-0.016,-0.0153,-0.0163,-0.0189,-0.0189,-0.0234,-0.0239,-0.026,-0.0313,-0.0323,-0.0336,-0.0308,-0.0429,-0.0431,-0.0433,-0.044,-0.0444,-0.0447,0,0,0,0,0,0.0039,0.0015,0.0005,-0.0009,-0.0094,-0.0161,-0.0173,-0.0201,-0.0191,-0.0213,-0.0242,-0.0237,-0.0333,-0.0318,-0.0329,-0.0343,-0.0428,-0.043,-0.0433,-0.0439,-0.0443,-0.0447,0,0,0,0,0,0,0.0076,0.0008,-0.0004,-0.0047,-0.0098,-0.0164,-0.018,-0.0201,-0.0244,-0.0232,-0.0265,-0.0274,-0.0322,-0.0336,-0.0318,-0.0388,-0.0375,-0.038,-0.0376,-0.038,-0.0384,-0.0369,-0.0311,0,0,0,0,0,0.0078,0.0046,-0.0021,-0.0053,-0.0075,-0.0126,-0.0152,-0.0174,-0.022,-0.0236,-0.0267,-0.0299,-0.0346,-0.0363,-0.0404,-0.0448,-0.043,-0.0461,-0.0464,-0.0467,-0.0463,-0.0457,-0.0459,-0.0443,-0.0443,-0.0443,0,0,0.0087,0.0046,0.0029,-0.0046,-0.0081,-0.0132,-0.0139,-0.0178,-0.0219,-0.0237,-0.0289,-0.0317,-0.0362,-0.0413,-0.0433,-0.0422,-0.0459,-0.047,-0.0472,-0.0467,-0.046,-0.0461,-0.0462,-0.0445,-0.0444,-0.0444,0,0,0.0085,0.005,0.0023,-0.0026,-0.0081,-0.0123,-0.0133,-0.0197,-0.022,-0.0276,-0.0301,-0.0337,-0.0398,-0.0439,-0.0467,-0.0514,-0.0482,-0.0518,-0.052,-0.0514,-0.0514,-0.0515,-0.0475,-0.0472,-0.0513,-0.0513,-0.0513,0,0.0107,0.0049,0.0005,-0.0041,-0.0078,-0.0119,-0.0162,-0.0209,-0.0279,-0.0303,-0.0285,-0.0382,-0.0413,-0.0491,-0.0501,-0.0521,-0.0494,-0.05,-0.0516,-0.0516,-0.0516,-0.0475,-0.0471,-0.0514,-0.0514,-0.0514,-0.0514,0,0.007,0.0028,0.0009,-0.0065,-0.0116,-0.0155,-0.0225,-0.0264,-0.0281,-0.0322,-0.0381,-0.0422,-0.0469,-0.0489,-0.0508,-0.0541,-0.0512,-0.0522,-0.0498,-0.0517,-0.0474,-0.047,-0.0515,-0.0515,-0.0515,-0.0514,0,0,0.0126,0.0008,0.001,-0.0034,-0.0128,-0.0173,-0.0242,-0.0321,-0.0357,-0.0396,-0.0442,-0.0507,-0.0499,-0.053,-0.0555,-0.0553,-0.0525,-0.0528,-0.0527,-0.0475,-0.0475,-0.0484,-0.048,-0.0528,-0.0528,-0.0528,-0.0436,0,0.0122,0.0046,-0.002,-0.0096,-0.0147,-0.0217,-0.0283,-0.0356,-0.0401,-0.0456,-0.049,-0.053,-0.0526,-0.0528,-0.0534,-0.0548,-0.0518,-0.0547,-0.0476,-0.0473,-0.0469,-0.0478,-0.0527,-0.0432,-0.0431,-0.0431,-0.043,0,0.0116,0.0059,0.001,-0.0122,-0.0146,-0.0163,-0.026,-0.0331,-0.0424,-0.0458,-0.0497,-0.0538,-0.0569,-0.054,-0.0533,-0.0546,-0.0495,-0.0485,-0.0481,-0.0485,-0.0476,-0.0417,-0.0422,-0.0423,-0.0424,-0.0424,-0.0425,0,0.0183,0.0072,0.0047,0.0008,-0.0127,-0.0119,-0.0169,-0.0272,-0.035,-0.0411,-0.0463,-0.0516,-0.0521,-0.0499,-0.0477,-0.0494,-0.0442,-0.0468,-0.0421,-0.0419,-0.0431,-0.0432,-0.0418,-0.0418,-0.0419,-0.0419,-0.0419,0,0.0183,0.0155,0.0117,0.0101,0.0085,-0.0021,-0.0047,-0.0118,-0.0234,-0.0331,-0.0406,-0.0476,-0.0505,-0.051,-0.0471,-0.0428,-0.0421,-0.0416,-0.0404,-0.0435,-0.0438,-0.0426,-0.0428,-0.0415,-0.0416,-0.0417,-0.0417,0,0.0238,0.0207,0.0182,0.0126,0.0132,0.0149,0.0053,-0.0027,-0.0107,-0.023,-0.025,-0.0417,-0.0438,-0.0454,-0.0422,-0.0413,-0.0372,-0.0334,-0.0332,-0.0322,-0.0352,-0.0356,-0.0312,-0.0312,-0.0311,-0.0311,-0.0311,0,0.0239,0.0249,0.0263,0.0288,0.0302,0.0302,0.025,0.0108,-0.0022,-0.0201,-0.0293,-0.0351,-0.0441,-0.0373,-0.0404,-0.0336,-0.0323,-0.028,-0.0361,-0.0352,-0.0345,-0.0349,-0.0353,-0.0311,-0.0311,-0.0311,-0.0311,0,0.0245,0.0311,0.0296,0.0373,0.0396,0.0299,0.0225,0.0151,-0.0068,-0.0149,-0.0276,-0.0313,-0.0356,-0.0373,-0.0305,-0.0266,-0.0323,-0.0279,-0.028,-0.0356,-0.035,-0.0344,-0.0349,-0.031,-0.031,-0.031,-0.031,0,0.0292,0.0313,0.0358,0.04,0.0424,0.0314,0.0253,0.01,-0.0026,-0.0232,-0.0241,-0.0295,-0.0336,-0.0334,-0.0284,-0.0252,-0.0279,-0.026,-0.0263,-0.0264,-0.0307,-0.0296,-0.0223,0,0,0,0,0,0.0312,0.0316,0.0349,0.0359,0.0375,0.0377,0.0195,0.0081,-0.0076,-0.0142,-0.0198,-0.0226,-0.023,-0.0267,-0.0231,-0.033,-0.0301,-0.0294,-0.0284,-0.0306,-0.0307,-0.037,0,0,0,0,0,0,0.0319,0.0367,0.0334,0.032,0.0357,0.0282,0.0203,0.0062,-0.0014,-0.0105,-0.0101,-0.0152,-0.0159,-0.017,-0.0179,-0.0195,-0.0181,-0.0315,-0.0315,-0.0305,-0.0306,-0.0307,-0.0372,0,0,0,0,0]}]]